TimeEDT,TemperatureF,Dew PointF,Humidity,Sea Level PressureIn,VisibilityMPH,Wind Direction,Wind SpeedMPH,Gust SpeedMPH,PrecipitationIn,Events,Conditions,WindDirDegrees,DateUTC
12:15 AM,75.4,58.8,56,29.91,10.0,SW,9.2,-,N/A,,Clear,220,2013-05-16 04:15:00
12:35 AM,75.0,59.0,57,29.90,10.0,SW,9.2,-,N/A,,Clear,220,2013-05-16 04:35:00
12:55 AM,74.3,59.0,59,29.90,10.0,SW,8.1,-,N/A,,Clear,230,2013-05-16 04:55:00
1:15 AM,74.1,59.0,59,29.90,10.0,SW,9.2,-,N/A,,Clear,230,2013-05-16 05:15:00
1:35 AM,73.8,59.0,60,29.90,10.0,SW,9.2,-,N/A,,Clear,220,2013-05-16 05:35:00
1:55 AM,73.6,59.0,60,29.89,10.0,SW,8.1,-,N/A,,Clear,230,2013-05-16 05:55:00
2:15 AM,73.4,59.0,61,29.89,10.0,SW,9.2,-,N/A,,Clear,230,2013-05-16 06:15:00
2:35 AM,73.0,59.0,61,29.89,10.0,SW,5.8,-,N/A,,Clear,230,2013-05-16 06:35:00
2:55 AM,72.7,59.0,62,29.88,10.0,SW,5.8,-,N/A,,Clear,230,2013-05-16 06:55:00
3:15 AM,72.1,59.0,63,29.88,10.0,WSW,6.9,-,N/A,,Clear,240,2013-05-16 07:15:00
3:35 AM,71.6,59.2,65,29.88,10.0,WSW,5.8,-,N/A,,Clear,240,2013-05-16 07:35:00
3:55 AM,71.4,59.2,65,29.88,10.0,WSW,6.9,-,N/A,,Clear,240,2013-05-16 07:55:00
4:15 AM,70.7,59.2,67,29.89,10.0,WSW,5.8,-,N/A,,Clear,250,2013-05-16 08:15:00
4:35 AM,70.2,59.4,69,29.89,10.0,SW,5.8,-,N/A,,Clear,230,2013-05-16 08:35:00
4:55 AM,69.6,59.4,70,29.88,10.0,SW,4.6,-,N/A,,Clear,230,2013-05-16 08:55:00
5:15 AM,68.7,59.4,72,29.88,10.0,WSW,4.6,-,N/A,,Clear,240,2013-05-16 09:15:00
5:35 AM,68.2,59.4,73,29.89,10.0,WSW,3.5,-,N/A,,Clear,240,2013-05-16 09:35:00
5:55 AM,67.6,59.4,75,29.89,10.0,WSW,4.6,-,N/A,,Clear,240,2013-05-16 09:55:00
6:15 AM,67.8,59.4,74,29.90,10.0,Calm,Calm,-,N/A,,Clear,0,2013-05-16 10:15:00
6:35 AM,67.6,59.4,75,29.90,10.0,WSW,3.5,-,N/A,,Clear,250,2013-05-16 10:35:00
6:55 AM,68.2,59.9,75,29.91,10.0,WSW,4.6,-,N/A,,Clear,240,2013-05-16 10:55:00
7:15 AM,69.3,59.9,72,29.92,10.0,WSW,5.8,-,N/A,,Clear,250,2013-05-16 11:15:00
7:35 AM,70.2,60.4,71,29.92,10.0,WSW,5.8,-,N/A,,Clear,250,2013-05-16 11:35:00
7:55 AM,71.4,60.8,69,29.92,10.0,WSW,8.1,-,N/A,,Clear,250,2013-05-16 11:55:00
8:15 AM,73.0,60.8,65,29.92,10.0,WSW,5.8,-,N/A,,Clear,250,2013-05-16 12:15:00
8:35 AM,74.8,61.0,62,29.93,10.0,West,6.9,-,N/A,,Clear,270,2013-05-16 12:35:00
8:55 AM,76.6,60.8,58,29.93,10.0,West,8.1,-,N/A,,Clear,260,2013-05-16 12:55:00
9:15 AM,78.4,60.6,54,29.94,10.0,West,6.9,-,N/A,,Clear,280,2013-05-16 13:15:00
9:35 AM,81.0,60.3,49,29.94,10.0,West,6.9,-,N/A,,Clear,270,2013-05-16 13:35:00
9:55 AM,82.8,58.5,43,29.94,10.0,West,8.1,-,N/A,,Clear,270,2013-05-16 13:55:00
10:15 AM,84.4,56.5,38,29.94,10.0,West,10.4,-,N/A,,Clear,280,2013-05-16 14:15:00
10:35 AM,85.5,55.4,36,29.94,10.0,West,11.5,16.1,N/A,,Clear,270,2013-05-16 14:35:00
10:55 AM,86.2,54.1,33,29.94,10.0,West,12.7,17.3,N/A,,Clear,270,2013-05-16 14:55:00
11:15 AM,86.7,52.3,31,29.94,10.0,WNW,10.4,18.4,N/A,,Clear,290,2013-05-16 15:15:00
11:35 AM,86.9,52.7,31,29.95,10.0,West,10.4,16.1,N/A,,Clear,270,2013-05-16 15:35:00
11:55 AM,87.6,53.1,31,29.95,10.0,West,11.5,19.6,N/A,,Clear,280,2013-05-16 15:55:00
12:15 PM,87.6,52.9,30,29.94,10.0,WSW,9.2,-,N/A,,Clear,250,2013-05-16 16:15:00
12:35 PM,87.6,53.1,31,29.93,10.0,West,9.2,-,N/A,,Clear,270,2013-05-16 16:35:00
12:55 PM,88.7,54.1,31,29.92,10.0,West,8.1,-,N/A,,Clear,260,2013-05-16 16:55:00
1:15 PM,87.6,54.3,32,29.92,10.0,WSW,9.2,-,N/A,,Clear,240,2013-05-16 17:15:00
1:35 PM,86.9,53.6,32,29.92,10.0,SW,10.4,17.3,N/A,,Clear,230,2013-05-16 17:35:00
2:35 PM,86.0,53.4,33,29.92,10.0,WSW,13.8,20.7,N/A,,Clear,250,2013-05-16 18:35:00
2:55 PM,85.3,53.4,33,29.92,10.0,West,10.4,-,N/A,,Clear,280,2013-05-16 18:55:00
3:15 PM,87.3,54.3,32,29.91,10.0,WSW,9.2,17.3,N/A,,Clear,250,2013-05-16 19:15:00
3:35 PM,88.3,55.2,32,29.90,10.0,WSW,5.8,-,N/A,,Clear,240,2013-05-16 19:35:00
3:55 PM,88.5,53.8,30,29.90,10.0,WSW,13.8,19.6,N/A,,Clear,250,2013-05-16 19:55:00
4:15 PM,88.9,53.6,30,29.89,10.0,West,12.7,16.1,N/A,,Clear,270,2013-05-16 20:15:00
4:35 PM,88.5,54.3,31,29.89,10.0,WSW,9.2,-,N/A,,Clear,250,2013-05-16 20:35:00
4:55 PM,87.4,53.4,31,29.90,10.0,SW,11.5,16.1,N/A,,Clear,230,2013-05-16 20:55:00
5:15 PM,86.7,51.6,30,29.90,10.0,WSW,12.7,17.3,N/A,,Clear,250,2013-05-16 21:15:00
5:35 PM,86.2,51.3,30,29.90,10.0,West,11.5,17.3,N/A,,Clear,260,2013-05-16 21:35:00
5:55 PM,85.6,51.8,31,29.90,10.0,West,10.4,16.1,N/A,,Clear,260,2013-05-16 21:55:00
6:15 PM,85.3,51.8,31,29.91,10.0,West,8.1,-,N/A,,Clear,260,2013-05-16 22:15:00
6:35 PM,84.2,52.2,33,29.91,10.0,West,8.1,-,N/A,,Clear,270,2013-05-16 22:35:00
6:55 PM,82.9,52.5,35,29.91,10.0,West,4.6,-,N/A,,Clear,270,2013-05-16 22:55:00
7:15 PM,81.7,53.6,38,29.91,10.0,West,5.8,-,N/A,,Clear,270,2013-05-16 23:15:00
7:35 PM,80.6,53.6,39,29.92,10.0,West,3.5,-,N/A,,Clear,260,2013-05-16 23:35:00
7:55 PM,79.2,53.4,41,29.92,10.0,West,5.8,-,N/A,,Clear,260,2013-05-16 23:55:00
8:15 PM,78.3,53.1,41,29.92,10.0,WSW,4.6,-,N/A,,Clear,240,2013-05-17 00:15:00
8:35 PM,77.2,53.8,44,29.93,10.0,SW,4.6,-,N/A,,Clear,230,2013-05-17 00:35:00
8:55 PM,76.8,54.1,45,29.94,10.0,WSW,4.6,-,N/A,,Clear,250,2013-05-17 00:55:00
9:15 PM,75.7,54.9,48,29.94,10.0,WSW,4.6,-,N/A,,Clear,250,2013-05-17 01:15:00
9:35 PM,75.6,55.2,49,29.95,10.0,West,4.6,-,N/A,,Clear,260,2013-05-17 01:35:00
9:55 PM,74.8,55.6,51,29.96,10.0,West,3.5,-,N/A,,Clear,270,2013-05-17 01:55:00
10:15 PM,73.4,56.3,55,29.96,10.0,Calm,Calm,-,N/A,,Clear,0,2013-05-17 02:15:00
10:55 PM,69.3,60.8,74,29.95,10.0,Calm,Calm,-,N/A,,Clear,0,2013-05-17 02:55:00
11:15 PM,68.5,61.2,77,29.95,10.0,Calm,Calm,-,N/A,,Clear,0,2013-05-17 03:15:00
11:35 PM,69.3,61.2,75,29.95,10.0,WSW,3.5,-,N/A,,Clear,240,2013-05-17 03:35:00
11:55 PM,72.0,58.8,63,29.96,10.0,SSW,3.5,-,N/A,,Clear,210,2013-05-17 03:55:00